This is the latest recevied weather packets stored in our database for station/object N3WPH. If no packets are shown the sender has not sent any weather packets the latest 10 day(s).
| Time | Temp. | Humidity | Pressure | Rain* | Wind** | Luminosity | Snow |
|---|---|---|---|---|---|---|---|
| 1777823308 | 9.44° C | 46% | 1013.6 hPa | 0 mm | - | 282 W/m² | - |
| 1777823006 | 9.44° C | 45% | 1013.6 hPa | 0 mm | - | 224 W/m² | - |
| 1777822704 | 9.44° C | 45% | 1013.7 hPa | 0 mm | - | 186 W/m² | - |
| 1777822401 | 10° C | 45% | 1013.4 hPa | 0 mm | - | 257 W/m² | - |
| 1777822099 | 9.44° C | 42% | 1013.5 hPa | 0 mm | - | 810 W/m² | - |
| 1777821796 | 10° C | 49% | 1013.5 hPa | 0 mm | - | 372 W/m² | - |
| 1777821494 | 9.44° C | 45% | 1013.7 hPa | 0 mm | - | 360 W/m² | - |
| 1777821191 | 10.56° C | 46% | 1013.8 hPa | 0 mm | - | 305 W/m² | - |
| 1777820888 | 8.89° C | 47% | 1013.6 hPa | 0 mm | - | 833 W/m² | - |
| 1777820583 | 10° C | 45% | 1013.6 hPa | 0 mm | - | 189 W/m² | - |
| 1777820281 | 10.56° C | 47% | 1013.3 hPa | 0 mm | - | 786 W/m² | - |
| 1777819978 | 9.44° C | 50% | 1013.6 hPa | 0 mm | - | 705 W/m² | - |
| 1777819675 | 8.89° C | 46% | 1013.6 hPa | 0 mm | - | 693 W/m² | - |
| 1777819374 | 8.33° C | 46% | 1013.4 hPa | 0 mm | - | 181 W/m² | - |
| 1777819070 | 8.89° C | 46% | 1013.6 hPa | 0 mm | - | 215 W/m² | - |
| 1777818767 | 9.44° C | 48% | 1013.5 hPa | 0 mm | - | 449 W/m² | - |
| 1777818463 | 8.89° C | 50% | 1013.4 hPa | 0 mm | - | 698 W/m² | - |
| 1777818160 | 8.33° C | 50% | 1013.6 hPa | 0 mm | - | 118 W/m² | - |
| 1777817857 | 8.33° C | 53% | 1013.7 hPa | 0 mm | - | 551 W/m² | - |
| 1777817555 | 8.89° C | 51% | 1013.6 hPa | 0 mm | - | 166 W/m² | - |
| 1777817251 | 8.89° C | 57% | 1013.7 hPa | 0 mm | - | 718 W/m² | - |
| 1777816948 | 7.22° C | 57% | 1013.6 hPa | 0 mm | - | 429 W/m² | - |
| 1777816644 | 7.78° C | 58% | 1013.7 hPa | 0 mm | - | 163 W/m² | - |
| 1777816341 | 8.33° C | 57% | 1013.6 hPa | 0 mm | - | 646 W/m² | - |
| 1777816039 | 6.67° C | 61% | 1013.7 hPa | 0 mm | - | 335 W/m² | - |
* Rain latest hour (hover to see other rain measurements)
** Current wind speed in m/s (hover to see current wind gust speed)